Location: Leeds
(37.2390°N, 113.3580°W)
Time: 11:20:59
(UTC-06:00)

ISS - All Passes

Search period start: 03 July 2015 00:00
Search period end: 13 July 2015 00:00
Orbit: 398 x 403 km, 51.6° (Epoch: 03 July)

Date Brightness Start Highest point End Pass type
(mag) Time Alt. Az. Time Alt. Az. Time Alt. Az.
03 Jul - 08:12:46 10° SSE 08:14:44 15° SE 08:16:47 10° E daylight
03 Jul - 09:47:47 10° WSW 09:50:54 44° NW 09:54:01 10° NE daylight
03 Jul - 11:27:26 10° NNW 11:28:00 10° NNW 11:28:29 10° N daylight
03 Jul - 14:41:31 10° N 14:43:17 14° NNE 14:45:07 10° ENE daylight
03 Jul - 16:16:52 10° NW 16:20:08 87° NE 16:23:21 10° SE daylight
04 Jul - 08:54:08 10° SW 08:57:23 87° SE 09:00:38 10° NE daylight
04 Jul - 10:32:15 10° WNW 10:34:10 15° NNW 10:36:04 10° NNE daylight
04 Jul - 15:23:29 10° NW 15:26:35 41° NE 15:29:40 10° ESE daylight
04 Jul - 17:00:36 10° W 17:02:46 17° SW 17:04:52 10° S daylight
05 Jul - 08:00:54 10° SSW 08:03:56 38° SE 08:06:58 10° ENE daylight
05 Jul - 09:37:47 10° W 09:40:25 22° NNW 09:43:02 10° NNE daylight
05 Jul - 14:30:15 10° NNW 14:32:56 23° NNE 14:35:37 10° E daylight
05 Jul - 16:06:24 10° WNW 16:09:23 34° SW 16:12:22 10° SSE daylight
06 Jul - 07:08:17 10° S 07:10:33 18° SE 07:12:53 10° E daylight
06 Jul - 08:43:41 10° WSW 08:46:45 38° NW 08:49:49 10° NE daylight
06 Jul - 13:37:12 10° NNW 13:39:11 15° NNE 13:41:12 10° ENE daylight
06 Jul - 15:12:42 10° NW 15:15:57 79° SW 15:19:10 10° SE daylight
07 Jul - 07:49:56 10° SW 07:53:10 80° NW 07:56:26 10° NE daylight
07 Jul - 09:28:18 10° NW 09:30:02 13° NNW 09:31:43 10° N daylight
07 Jul - 12:44:34 10° N 12:45:20 11° NNE 12:46:09 10° NNE daylight
07 Jul - 14:19:15 10° NW 14:22:24 47° NE 14:25:32 10° ESE daylight
07 Jul - 15:56:40 10° W 15:58:31 14° SW 16:00:17 10° SSW daylight
08 Jul - 06:56:34 10° SSW 06:59:40 45° SE 07:02:48 10° ENE daylight
08 Jul - 08:33:43 10° W 08:36:14 20° NNW 08:38:43 10° NNE daylight
08 Jul - 13:25:57 10° NNW 13:28:44 26° NNE 13:31:31 10° E daylight
08 Jul - 15:02:15 10° WNW 15:05:07 29° SW 15:07:58 10° SSE daylight
09 Jul - 06:03:45 10° S 06:06:14 21° SE 06:08:48 10° E daylight
09 Jul - 07:39:31 10° W 07:42:31 33° NNW 07:45:30 10° NNE daylight
09 Jul - 12:32:49 10° NNW 12:34:57 16° NNE 12:37:09 10° ENE daylight
09 Jul - 14:08:26 10° NW 14:11:39 67° SW 14:14:51 10° SE daylight
10 Jul - 06:45:38 10° WSW 06:48:52 68° NW 06:52:06 10° NE daylight
10 Jul - 08:24:17 10° NW 08:25:47 12° NNW 08:27:15 10° N daylight
10 Jul - 11:39:58 10° N 11:41:05 11° NNE 11:42:16 10° NE daylight
10 Jul - 13:14:53 10° NW 13:18:05 55° NE 13:21:16 10° ESE daylight
10 Jul - 14:52:45 10° WSW 14:54:10 12° SW 14:55:27 10° SSW daylight
11 Jul - 05:52:08 10° SW 05:55:18 54° SE 05:58:30 10° ENE visible
11 Jul - 07:29:33 10° WNW 07:31:56 18° NNW 07:34:17 10° NNE daylight
11 Jul - 12:21:31 10° NNW 12:24:24 29° NNE 12:27:18 10° E daylight
11 Jul - 13:58:00 10° WNW 14:00:44 25° SW 14:03:26 10° S daylight
12 Jul - 04:59:08 10° S 05:01:49 24° SE 05:04:33 10° ENE visible
12 Jul - 06:35:14 10° W 06:38:09 30° NNW 06:41:04 10° NNE daylight
12 Jul - 11:28:19 10° NNW 11:30:37 18° NNE 11:32:57 10° ENE daylight
12 Jul - 13:04:04 10° WNW 13:07:14 56° SW 13:10:24 10° SE daylight
